Location: Champs
(48.8539°N, 2.6040°E)
Time: 02:39:59
(UTC+00:00)

PSLV R/B - Pass Details

Date: 26 October 2021
Orbit: 593 x 628 km, 98.0° (Epoch: 30 November)

Event Time Altitude Azimuth Distance (km) Brightness Sun altitude
Rises 04:00:03 0° 17° (NNE) 2,930 7.4 -24.7°
Reaches altitude 10° 04:02:18 10° 21° (NNE) 2,016 6.5 -24.3°
Maximum altitude 04:06:38 58° 101° (E) 732 4.1 -23.6°
Drops below altitude 10° 04:10:54 10° 181° (S) 1,988 6.1 -22.9°
Enters shadow 04:11:00 - 181° (S) 2,027 6.1 -22.9°
